Have a Safe July 4th! 

Flight Track Log - Related Links

Times and Time Zones

All times are in EDT time to prevent confusion due to time zone crossing. See the CJT574 flight status page for this flight to view local times or setup timezone preferences in your user account.

Time Position Orientation Groundspeed Altitude Reporting Facility
EDT Latitude Longitude Course Direction KTS MPH feet Rate Location/Type
Thu 11:48:06 PM 53.2833 -113.6000 101° East 80 92 2,700  Level Edmonton Center
Thu 11:49:06 PM 53.3000 -113.6667 293° West 170 196 4,000 1,250 Climbing Edmonton Center
Thu 11:50:06 PM 53.3500 -113.7167 329° Northwest 170 196 5,200 1,150 Climbing Edmonton Center
Thu 11:51:06 PM 53.3667 -113.6000 76° East 240 276 6,300 1,550 Climbing Edmonton Center
Thu 11:52:06 PM 53.3500 -113.4833 103° East 270 311 8,300 1,950 Climbing Edmonton Center
Thu 11:53:00 PM 53.1481 -112.1912 101° East  Level FlightAware Approximate
Thu 11:53:06 PM 53.3500 -113.3333 90° East 280 322 10,200  Level Edmonton Center
Thu 11:54:06 PM 53.3333 -113.1833 100° East 340 391 11,400 1,500 Climbing Edmonton Center
Thu 11:55:06 PM 53.3167 -113.0167 99° East 380 437 13,200 1,750 Climbing Edmonton Center
Thu 11:56:06 PM 53.3000 -112.8500 99° East 390 449 14,900 1,850 Climbing Edmonton Center
Thu 11:57:06 PM 53.2833 -112.6667 99° East 400 460 16,900 1,700 Climbing Edmonton Center
Thu 11:58:06 PM 53.2500 -112.4667 105° East 410 472 18,300 1,750 Climbing Edmonton Center
Thu 11:59:06 PM 53.2167 -112.2833 107° East 420 483 20,400 1,700 Climbing Edmonton Center
Fri 12:00:06 AM 53.2000 -112.0833 98° East 430 495 21,700 1,150 Climbing Edmonton Center
Fri 12:01:06 AM 53.1500 -111.8833 113° Southeast 450 518 22,700 1,250 Climbing Edmonton Center
Fri 12:02:06 AM 53.1167 -111.6500 103° East 460 529 24,200 1,400 Climbing Edmonton Center
Fri 12:03:06 AM 53.1000 -111.4500 98° East 470 541 25,500 1,300 Climbing Edmonton Center
Fri 12:04:06 AM 53.0667 -111.2167 103° East 480 552 26,800 1,050 Climbing Edmonton Center
Fri 12:05:06 AM 53.0167 -111.0167 112° Southeast 480 552 27,600 1,300 Climbing Edmonton Center
Fri 12:06:06 AM 53.0000 -110.7833 97° East 490 564 29,400 1,250 Climbing Edmonton Center
Fri 12:07:06 AM 52.9500 -110.5833 112° Southeast 490 564 30,100 1,000 Climbing Edmonton Center
Fri 12:08:06 AM 52.9167 -110.3500 103° East 490 564 31,400 1,250 Climbing Edmonton Center
Fri 12:09:06 AM 52.8833 -110.1500 105° East 480 552 32,600 850 Climbing Edmonton Center
Fri 12:10:06 AM 52.8500 -109.9167 103° East 480 552 33,100 600 Climbing Edmonton Center
Fri 12:11:06 AM 52.8167 -109.7000 104° East 490 564 33,800 750 Climbing Edmonton Center
Fri 12:12:06 AM 52.7833 -109.5000 105° East 490 564 34,600 600 Climbing Edmonton Center
Fri 12:13:06 AM 52.7500 -109.2667 103° East 490 564 35,000 200 Climbing Edmonton Center
Fri 12:14:06 AM 52.7000 -109.0333 109° East 500 575 35,000  Level Edmonton Center
Fri 12:15:06 AM 52.6667 -108.8167 104° East 500 575 35,000  Level Edmonton Center
Fri 12:16:06 AM 52.6167 -108.5833 109° East 500 575 35,000  Level Edmonton Center
Fri 12:17:06 AM 52.5667 -108.3500 109° East 500 575 35,000  Level Edmonton Center
Fri 12:18:06 AM 52.5500 -108.1333 97° East 510 587 35,000  Level Edmonton Center
Fri 12:19:06 AM 52.5000 -107.9333 112° Southeast 510 587 35,000  Level Edmonton Center
Fri 12:20:06 AM 52.4500 -107.6833 108° East 510 587 35,000  Level Edmonton Center
Fri 12:21:06 AM 52.4167 -107.4500 103° East 510 587 35,000  Level Edmonton Center
Fri 12:22:06 AM 52.3667 -107.2333 111° Southeast 510 587 35,000  Level Edmonton Center
Fri 12:23:06 AM 52.3333 -107.0167 104° East 510 587 35,000  Level Edmonton Center
Fri 12:24:06 AM 52.2833 -106.7833 109° East 510 587 35,000  Level Edmonton Center
Fri 12:25:06 AM 52.2333 -106.5667 111° Southeast 520 598 35,000  Level Edmonton Center
Fri 12:26:06 AM 52.1833 -106.3500 111° Southeast 510 587 35,000  Level Edmonton Center
Fri 12:27:06 AM 52.1500 -106.1167 103° East 510 587 35,000  Level Edmonton Center
Fri 12:28:06 AM 52.1000 -105.9000 111° Southeast 510 587 35,000  Level Edmonton Center
Fri 12:29:06 AM 52.0667 -105.6833 104° East 510 587 35,000  Level Edmonton Center
Fri 12:30:06 AM 52.0167 -105.4500 109° East 510 587 35,000  Level Edmonton Center
Fri 12:31:06 AM 51.9667 -105.2333 110° East 510 587 35,000  Level Edmonton Center
Fri 12:32:06 AM 51.9167 -105.0167 110° East 510 587 35,000  Level Edmonton Center
Fri 12:33:06 AM 51.8667 -104.8000 110° East 510 587 35,000  Level Edmonton Center
Fri 12:34:06 AM 51.8167 -104.5833 110° East 510 587 35,000  Level Edmonton Center
Fri 12:35:06 AM 51.7833 -104.3667 104° East 510 587 35,000  Level Edmonton Center
Fri 12:36:06 AM 51.7167 -104.1500 116° Southeast 510 587 35,000  Level Edmonton Center
Fri 12:37:06 AM 51.6667 -103.9333 110° East 510 587 35,000  Level Edmonton Center
Fri 12:38:06 AM 51.6167 -103.7167 110° East 510 587 35,000  Level Edmonton Center
Fri 12:39:06 AM 51.5667 -103.5000 110° East 510 587 35,000  Level Edmonton Center
Fri 12:40:06 AM 51.5167 -103.2833 110° East 510 587 35,000  Level Edmonton Center
Fri 12:41:06 AM 51.4667 -103.0667 110° East 520 598 35,000  Level Edmonton Center
Fri 12:42:06 AM 51.4167 -102.8500 110° East 520 598 35,000  Level Edmonton Center
Fri 12:43:06 AM 51.3667 -102.6333 110° East 520 598 35,000  Level Edmonton Center
Fri 12:44:06 AM 51.3167 -102.4333 112° Southeast 510 587 35,000  Level Edmonton Center
Fri 12:45:06 AM 51.2500 -102.2167 116° Southeast 510 587 35,000  Level Edmonton Center
Fri 12:46:06 AM 51.2167 -102.0000 104° East 510 587 35,000  Level Edmonton Center
Fri 12:47:06 AM 51.1500 -101.7667 114° Southeast 510 587 35,000  Level Edmonton Center
Fri 12:48:06 AM 51.1000 -101.5833 113° Southeast 510 587 35,000  Level Edmonton Center
Fri 12:49:06 AM 51.0500 -101.3667 110° East 500 575 35,000  Level Edmonton Center
Fri 12:50:06 AM 51.0000 -101.1500 110° East 500 575 35,000  Level Edmonton Center
Fri 12:51:06 AM 50.9500 -100.9500 112° Southeast 500 575 35,000  Level Edmonton Center
Fri 12:52:06 AM 50.8833 -100.7333 116° Southeast 500 575 35,000  Level Edmonton Center
Fri 12:53:27 AM 50.8333 -100.4833 107° East 510 587 35,000  Level Winnipeg Center
Fri 12:54:27 AM 50.7667 -100.2667 116° Southeast 510 587 35,000  Level Winnipeg Center
Fri 12:55:27 AM 50.7000 -100.0500 116° Southeast 510 587 35,000  Level Winnipeg Center
Fri 12:56:27 AM 50.6667 -99.8667 106° East 510 587 35,000  Level Winnipeg Center
Fri 12:57:27 AM 50.6000 -99.6500 116° Southeast 510 587 35,000  Level Winnipeg Center
Fri 12:58:27 AM 50.5333 -99.4667 120° Southeast 510 587 35,000 -300 Level Winnipeg Center
Fri 12:59:27 AM 50.4833 -99.2333 109° East 520 598 34,400 -1,600 Descending Winnipeg Center
Fri 01:00:27 AM 50.4333 -99.0333 111° Southeast 510 587 31,800 -3,350 Descending Winnipeg Center
Fri 01:01:27 AM 50.3833 -98.8333 111° Southeast 510 587 27,700 -3,800 Descending Winnipeg Center
Fri 01:02:27 AM 50.3167 -98.6167 116° Southeast 510 587 24,200 -3,250 Descending Winnipeg Center
Fri 01:03:27 AM 50.2667 -98.4333 113° Southeast 490 564 21,200 -3,300 Descending Winnipeg Center
Fri 01:04:27 AM 50.2167 -98.2500 113° Southeast 460 529 17,600 -3,650 Descending Winnipeg Center
Fri 01:05:27 AM 50.1833 -98.0667 106° East 450 518 13,900 -3,000 Descending Winnipeg Center
Fri 01:06:27 AM 50.1500 -97.9000 107° East 410 472 11,600 -1,900 Descending Winnipeg Center
Fri 01:07:27 AM 50.1000 -97.7667 120° Southeast 310 357 10,100 -2,200 Descending Winnipeg Center
Fri 01:08:27 AM 50.0833 -97.6667 105° East 280 322 7,200 -3,200 Descending Winnipeg Center
Fri 01:09:27 AM 50.0500 -97.5333 111° Southeast 270 311 3,700 -1,850 Descending Winnipeg Center
Fri 01:10:27 AM 50.0167 -97.4667 128° Southeast 230 265 3,500 -200 Descending Winnipeg Center
Fri 01:11:27 AM 50.0000 -97.3833 107° East 170 196 3,300 -500 Descending Winnipeg Center
Fri 01:12:27 AM 49.9667 -97.3333 136° Southeast 160 184 2,500 -850 Descending Winnipeg Center
Fri 01:13:27 AM 49.9333 -97.2833 136° Southeast 150 173 1,600 -800 Descending Winnipeg Center
Fri 01:14:27 AM 49.9000 -97.2500 147° Southeast 160 184 900 -700 Descending Winnipeg Center

Login

Don't have an account? Register now (free) for customized features, flight alerts, and more!